Location: Kolin
(50.0330°N, 15.2000°E)
Time: 07:56:11
(UTC+02:00)

Gurwin Techsat 1B - Pass Details

Date: 20 August 2022
Orbit: 811 x 814 km, 98.8° (Epoch: 25 September)

Event Time Altitude Azimuth Distance (km) Brightness Sun altitude
Rises 04:50:23 0° 9° (N) 3,352 12.5 -10.2°
Reaches altitude 10° 04:52:55 10° 0° (N) 2,415 11.6 -9.8°
Maximum altitude 04:57:38 33° 298° (WNW) 1,333 9.5 -9.2°
Enters shadow 05:02:14 11° 236° (SW) 2,359 10.3 -8.6°
